Weather History for Key West NAF, FL

Change the Weather History Date:

Saturday, March 30, 2013

  Actual Average Record
Temperature  
Mean Temperature 72 °F -  
Max Temperature 79 °F 81 °F 86 °F (1991)
Min Temperature 66 °F 72 °F 62 °F (1950)
Cooling Degree Days 6    
Growing Degree Days 22 (Base 50)    
Moisture  
Dew Point 57 °F    
Average Humidity 63    
Maximum Humidity 78    
Minimum Humidity 46    
Precipitation  
Precipitation 0.00 in - - ()
Sea Level Pressure  
Sea Level Pressure 30.19 in    
Wind  
Wind Speed 9 mph (ENE)    
Max Wind Speed 17 mph    
Max Gust Speed 23 mph    
Visibility 10 miles    
Events      
Averages and records for this station are not official NWS values.
T = Trace of Precipitation, MM = Missing Value Source: NWS Daily Summary

Daily Weather History Graph

Daily Weather History Graph

Search for Another Location

Airport:

Trip Planner

Search our weather history database for the weather conditions in past years. The results will help you decide how hot, cold, wet, or windy it might be!

Date:

Astronomy

Mar. 30, 2013 Rise Set
Actual Time 7:20 AM EDT 7:42 PM EDT
Civil Twilight 6:57 AM EDT 8:05 PM EDT
Nautical Twilight 6:30 AM EDT 8:31 PM EDT
Astronomical Twilight 6:03 AM EDT 8:58 PM EDT
Moon 11:21 PM EDT (3/30) 9:37 AM EDT (3/30)
Length of Visible Light 13h 07m
Length of Day
12h 21m
Waning Gibbous, 86% of the Moon is Illuminated
Mar 30
Waning Gibbous
Apr 3
Last Quarter
Apr 10
New
Apr 18
First Quarter
Apr 25
Full

Hourly Weather History & Observations

Time (EDT) Temp. Dew Point Humidity Pressure Visibility Wind Dir Wind Speed Gust Speed Precip Events Conditions
12:53 AM 68.0 °F 55.9 °F 65% 30.22 in 10.0 mi ENE 5.8 mph - N/A   Scattered Clouds
1:53 AM 66.9 °F 57.0 °F 70% 30.21 in 10.0 mi NE 5.8 mph - N/A   Scattered Clouds
2:53 AM 66.0 °F 57.9 °F 75% 30.19 in 10.0 mi NE 5.8 mph - N/A   Partly Cloudy
3:53 AM 66.0 °F 57.9 °F 75% 30.18 in 10.0 mi NE 5.8 mph - N/A   Partly Cloudy
4:53 AM 66.0 °F 57.9 °F 75% 30.17 in 10.0 mi NE 5.8 mph - N/A   Clear
5:53 AM 66.0 °F 57.9 °F 75% 30.19 in 10.0 mi NE 6.9 mph - N/A   Partly Cloudy
6:53 AM 66.0 °F 59.0 °F 78% 30.19 in 10.0 mi NE 5.8 mph - N/A   Scattered Clouds
7:53 AM 66.0 °F 57.9 °F 75% 30.21 in 9.0 mi ENE 8.1 mph - N/A   Scattered Clouds
8:53 AM 69.1 °F 57.9 °F 68% 30.23 in 10.0 mi ENE 11.5 mph - N/A   Partly Cloudy
9:53 AM 72.0 °F 57.0 °F 59% 30.24 in 10.0 mi ENE 6.9 mph 17.3 mph N/A   Partly Cloudy
10:53 AM 73.9 °F 55.9 °F 53% 30.25 in 10.0 mi East 13.8 mph - N/A   Partly Cloudy
11:53 AM 75.9 °F 54.0 °F 46% 30.23 in 10.0 mi East 11.5 mph - N/A   Partly Cloudy
12:53 PM 77.0 °F 55.9 °F 48% 30.22 in 10.0 mi East 17.3 mph - N/A   Partly Cloudy
1:53 PM 77.0 °F 57.0 °F 50% 30.20 in 10.0 mi East 16.1 mph 23.0 mph N/A   Partly Cloudy
2:53 PM 77.0 °F 55.0 °F 47% 30.18 in 10.0 mi East 16.1 mph - N/A   Partly Cloudy
3:53 PM 75.9 °F 55.9 °F 50% 30.17 in 10.0 mi East 16.1 mph - N/A   Mostly Cloudy
4:53 PM 75.9 °F 55.9 °F 50% 30.15 in 10.0 mi East 16.1 mph - N/A   Scattered Clouds
5:53 PM 73.9 °F 57.0 °F 55% 30.14 in 10.0 mi East 16.1 mph - N/A   Scattered Clouds
6:53 PM 72.0 °F 57.0 °F 59% 30.14 in 10.0 mi East 13.8 mph 21.9 mph N/A   Scattered Clouds
7:53 PM 70.0 °F 57.0 °F 63% 30.15 in 10.0 mi East 12.7 mph - N/A   Scattered Clouds
8:53 PM 70.0 °F 57.9 °F 65% 30.16 in 10.0 mi East 13.8 mph - N/A   Scattered Clouds
9:53 PM 70.0 °F 59.0 °F 68% 30.17 in 10.0 mi East 10.4 mph - N/A   Scattered Clouds
10:53 PM 70.0 °F 59.0 °F 68% 30.18 in 10.0 mi ESE 11.5 mph - N/A   Scattered Clouds
11:53 PM 69.1 °F 57.9 °F 68% 30.18 in 10.0 mi ESE 9.2 mph - N/A   Partly Cloudy